Regional Weather Roundup
Issued by NWS

Home | Current Version | Previous Version | Text Only | Print | Product List | Glossary Off
Versions: 1 2 3 4 5 6 7 8 9 10 11 12 13 14 15 16 17 18 19 20 21 22 23 24 25 26 27 28 29 30 31 32 33 34 35 36 37 38 39 40 41 42 43 44 45 46 47 48 49 50

251
ASUS43 KLOT 251312
RWRIL

ILLINOIS REGIONAL WEATHER ROUNDUP
NATIONAL WEATHER SERVICE CHICAGO/ROMEOVILLE IL
700 AM CST SAT FEB 25 2017

NOTE: "FAIR" INDICATES FEW OR NO CLOUDS BELOW 12,000 FEET WITH NO
SIGNIFICANT WEATHER AND/OR OBSTRUCTIONS TO VISIBILITY.

* THESE STATIONS ARE NOT UNDER NWS QUALITY CONTROL. THEY ALSO MAY NOT
  REPORT WEATHER SUCH AS PRECIPITATION OR FOG.

ILZ001-002-007-009-015-016-024-251400-
NORTHWEST ILLINOIS

CITY           SKY/WX    TMP DP  RH WIND       PRES   REMARKS
MOLINE         CLEAR     22  12  65 NW22G30   29.89R WCI   6
STERLING*      FLURRIES  20  16  84 W13       29.85R WCI   7
$$

ILZ003-004-008-010-011-017-018-251400-
NORTH CENTRAL ILLINOIS

CITY           SKY/WX    TMP DP  RH WIND       PRES   REMARKS
ROCKFORD       CLOUDY    20  14  77 NW16      29.81R WCI   6
FREEPORT*      CLOUDY    19  16  86 W12       29.81R FOG     WCI   7
ROCHELLE*      CLOUDY    20  15  80 NW17G23   29.81R HAZE    WCI   5
DE KALB*       CLOUDY    20  15  82 NW17G26   29.78R HAZE    WCI   5
PERU*          FLURRIES  21  15  76 NW22G28   29.84R WCI   5
$$

ILZ005-006-012>014-019>023-251400-
NORTHEAST ILLINOIS

CITY           SKY/WX    TMP DP  RH WIND       PRES   REMARKS
CHICAGO-OHARE  MOCLDY    23  15  71 NW16G24   29.74R WCI  10
CHICAGO-MIDWAY FLURRIES  25  15  66 W15G23    29.74R WCI  13
AURORA         LGT SNOW  22  16  78 W20G25    29.78R WCI   7
LANSING*       CLOUDY    26  19  76 W18G26    29.75R WCI  12
JOLIET*        FLURRIES  24  17  74 NW10G18   29.79R WCI  13
WAUKEGAN       MOCLDY    20  14  77 NW10G22   29.71R WCI   9
DUPAGE AIRPORT CLOUDY    21  13  71 NW14G25   29.76R WCI   8
KANKAKEE*      CLOUDY    26  17  68 W20G28    29.79R WCI  12
WHEELING       CLOUDY    21  14  74 NW17G24   29.75R WCI   7
MORRIS*        FLURRIES  23  16  74 NW21G31   29.79R WCI   8
ROMEOVILLE*    CLOUDY    22  19  87 NW15G25   29.78R WCI   9
NORTHERLY ISL    N/A     25  16  68 W18         N/A  WCI  12
$$

LMZ740>746-251400-
SOUTHERN LAKE MICHIGAN

STATION/POSITION SKY/WX   TEMP    WIND        PRES    VSBY  WAVE
                          AIR SEA DIR/SP/G                  HT/PER
                          (F)     (DEG/KT/KT) (MB)    (MI)  (FT/S)
HARRISON CRIB              25     300/ 21/ 24   N/A
BURNHAM HARBOR             25     250/ 13/ 19   N/A
CALUMET HARBOR             25     260/  8/ 13 1006.5R
BURNS HARBOR               29     290/ 18/ 24 1006.4R
MICHIGAN CITY              27     270/ 27/ 31   N/A
$$

ILZ025>027-034>036-040-047-049-050-058-095>099-251400-
WEST-CENTRAL ILLINOIS

CITY           SKY/WX    TMP DP  RH WIND       PRES   REMARKS
QUINCY         MOCLDY    22  15  75 NW20G25   30.00R WCI   7
GALESBURG*     CLEAR     19  15  81 W15       29.91R WCI   5
MACOMB*        CLEAR     21  16  79 NW20      29.97R WCI   6
JACKSONVILLE*  MOCLDY    24  16  71 W25G31    29.96R WCI   8
PITTSFIELD*    MOCLDY    24  14  65 W9G26     30.00R WCI  15
$$

ILZ028>032-037-038-041>044-048-051>054-059>061-251400-
CENTRAL ILLINOIS

CITY           SKY/WX    TMP DP  RH WIND       PRES   REMARKS
PONTIAC        FLURRIES  25  19  80 NW18      29.83R WCI  11
BLOOMINGTON    FLURRIES  22  15  75 NW25G31   29.85R WCI   5
DECATUR        CLOUDY    24  14  65 NW16G33   29.89R WCI  11
PEORIA         MOCLDY    23  14  68 W14G26    29.89R WCI  11
LACON*         CLOUDY    22  17  79 NW15G25   29.87R WCI   9
LINCOLN*       CLOUDY    26  17  69 NW9       29.91R WCI  16
SPRINGFIELD    CLOUDY    27  16  63 W21G28    29.92R WCI  13
TAYLORVILLE    CLOUDY    26  15  62 W25G33    29.93R WCI  11
$$

ILZ033-039-045-046-055>057-062-063-251400-
EAST-CENTRAL ILLINOIS

CITY           SKY/WX    TMP DP  RH WIND       PRES   REMARKS
CHAMPAIGN      FLURRIES  25  18  74 W29G36    29.84R WCI   8
RANTOUL*       LGT SNOW  26  22  83 W28G35    29.83R WCI  11
MATTOON        CLOUDY    25  15  66 NW30G38   29.90R WCI   8
PARIS*         CLOUDY    27  19  72 W28       29.87R WCI  12
$$

ILZ079-100>102-251400-
SOUTHWEST ILLINOIS

CITY           SKY/WX    TMP DP  RH WIND       PRES   REMARKS
ALTON          CLOUDY    28  16  59 W17G28    29.98R WCI  16
BELLEVILLE     CLOUDY    30  16  57 W16G30    29.98R WCI  18
CAHOKIA*       CLOUDY    30  15  53 W20G28    30.00R WCI  17
SPARTA*        CLOUDY    29  19  64 W15       30.00R WCI  18
$$

ILZ064>066-069>071-074>076-080>082-084>086-088>090-092>094-251400-
SOUTH-CENTRAL ILLINOIS

CITY           SKY/WX    TMP DP  RH WIND       PRES   REMARKS
CARBONDALE     CLOUDY    30  18  60 NW16G23   30.00R WCI  19
CAIRO*         CLEAR     31  19  61 NW14G25   30.03R WCI  21
EFFINGHAM*     CLOUDY   N/A N/A N/A W22G32    29.94R
MARION         CLOUDY    32  19  59 MISG      30.00R
MT. VERNON     FLURRIES  29  19  66 W13G20    29.98R WCI  19
CENTRALIA*     CLOUDY    30  21  69 W15G21    29.96R WCI  19
SALEM*         CLOUDY    31  18  58 NW15G23   29.95R WCI  20
METROPOLIS*    CLOUDY    33  19  56 W3G20     30.01R
$$

ILZ067-068-072-073-078-083-087-091-251400-
SOUTHEAST ILLINOIS

CITY           SKY/WX    TMP DP  RH WIND       PRES   REMARKS
LAWRENCEVILLE  CLOUDY    31  21  66 W17G25    29.92R WCI  19
FLORA*         CLOUDY    31  19  62 NW18G26   29.95R WCI  19
FAIRFIELD*     CLOUDY    30  22  70 W7        29.95R WCI  23
HARRISBURG*    CLOUDY    32  20  62 NW16G29   29.99R WCI  21
ROBINSON*      CLOUDY    29  19  67 NW25G36   29.92R WCI  15
CARMI*         CLOUDY    31  20  63 W15G28    29.96R WCI  20
$$

ABBREVIATIONS USED IN REMARKS
   TC - TEMPERATURE IN CELSIUS
  WCI - WIND CHILL INDEX
   HX - HEAT INDEX
  VSB - VISIBILITY
$$





USA.gov is the U.S. government's official web portal to all federal, state and local government web resources and services.